カタログに戻る

STARLINK-30838

運用中通信VLEO
NORAD 58211·PAYLOAD·🇺🇸 United States

打ち上げ Nov 3, 2023 から Cape Canaveral Space Force Station

Loading…

次のパス (今後24時間)

TLE

最新Source: CelesTrak SupGP

元期: Sep 15, 2026, 02:53 UTC

1 58211C 23170F   26258.12062500  .00004362  00000+0  15799-3 0  2585
2 58211  43.0001 204.2465 0001393 260.6604  59.9898 15.27575098    18

AllMySatでSTARLINK-30838をリアルタイム追跡

Download on the App Store